Location: Lombard
(41.8800°N, 88.0080°W)
Time: 14:06:05
(UTC-06:00)

Transit 4A - Pass Details

Date: 05 December 2023
Orbit: 870 x 973 km, 66.8° (Epoch: 03 March)

Event Time Altitude Azimuth Distance (km) Brightness Sun altitude
Rises 03:48:03 0° 334° (NNW) 3,604 - -35.7°
Reaches altitude 10° 03:50:52 10° 344° (NNW) 2,640 - -35.2°
Exits shadow 03:55:36 34° 32° (NNE) 1,470 9.1 -34.3°
Maximum altitude 03:56:26 35° 49° (NE) 1,427 9.1 -34.2°
Drops below altitude 10° 04:01:50 10° 115° (ESE) 2,562 10.9 -33.1°
Sets 04:04:31 0° 124° (ESE) 3,485 11.7 -32.6°
